• en France
  • Liste des pays
  • À 7 jours
  • Température de l'eau
  • Carte satellitaire
  • Carte météo
  • Widgets météo
  • user-avatar
    Se connecter

    Météo par heure à Brazzaville

    Ce jour, 20 Février, Mardi

    Heure Température Précipitation Vent Pression Humidité
    00:00 +25°C° 0,4 mm 1 m/s 734 mmHg 94%
    01:00 +25°C° 0,4 mm 1 m/s 734 mmHg 95%
    02:00 +25°C° 0,8 mm 1 m/s 733 mmHg 96%
    03:00 +25°C° 0,8 mm 1 m/s 733 mmHg 96%
    04:00 +24°C° 0,8 mm 1 m/s 733 mmHg 97%
    05:00 +25°C° 0,4 mm 1 m/s 733 mmHg 97%
    06:00 +25°C° 0,4 mm 1 m/s 733 mmHg 96%
    07:00 +25°C° 0,4 mm 1 m/s 734 mmHg 96%
    08:00 +26°C° 0,1 mm 1 m/s 734 mmHg 90%
    09:00 +27°C° 0,1 mm 1 m/s 734 mmHg 84%
    10:00 +28°C° 0,1 mm 1 m/s 734 mmHg 79%
    11:00 +30°C° 0,6 mm 1 m/s 734 mmHg 71%
    12:00 +33°C° 0,6 mm 1 m/s 733 mmHg 64%
    13:00 +33°C° 0,6 mm 0 m/s 733 mmHg 57%
    14:00 +34°C° 0,7 mm 1 m/s 732 mmHg 58%
    15:00 +33°C° 0,7 mm 1 m/s 731 mmHg 59%
    16:00 +32°C° 0,7 mm 1 m/s 731 mmHg 60%
    17:00 +31°C° 0,4 mm 1 m/s 731 mmHg 67%
    18:00 +29°C° 0,4 mm 1 m/s 731 mmHg 74%
    19:00 +27°C° 0,4 mm 1 m/s 731 mmHg 81%
    20:00 +27°C° 0 mm 1 m/s 732 mmHg 83%
    21:00 +26°C° 0 mm 1 m/s 732 mmHg 86%
    22:00 +26°C° 0 mm 1 m/s 733 mmHg 89%
    23:00 +25°C° 0 mm 1 m/s 733 mmHg 90%

    Demain, 21 Février, Mercredi

    Heure Température Précipitation Vent Pression Humidité
    00:00 +25°C° 0 mm 1 m/s 733 mmHg 92%
    01:00 +24°C° 0 mm 1 m/s 732 mmHg 93%
    02:00 +24°C° 0 mm 1 m/s 732 mmHg 94%
    03:00 +24°C° 0 mm 1 m/s 732 mmHg 95%
    04:00 +23°C° 0 mm 1 m/s 732 mmHg 95%
    05:00 +24°C° 0 mm 1 m/s 732 mmHg 94%
    06:00 +24°C° 0 mm 1 m/s 732 mmHg 92%
    07:00 +22°C° 0 mm 0 m/s 733 mmHg 90%
    08:00 +27°C° 0 mm 1 m/s 733 mmHg 81%
    09:00 +29°C° 0 mm 1 m/s 733 mmHg 72%
    10:00 +31°C° 0 mm 2 m/s 734 mmHg 62%
    11:00 +34°C° 0 mm 2 m/s 733 mmHg 57%
    12:00 +35°C° 0 mm 2 m/s 732 mmHg 51%
    13:00 +36°C° 0 mm 2 m/s 731 mmHg 46%
    14:00 +35°C° 0,1 mm 1 m/s 731 mmHg 47%
    15:00 +35°C° 0,1 mm 1 m/s 730 mmHg 48%
    16:00 +35°C° 0,1 mm 1 m/s 729 mmHg 49%
    17:00 +33°C° 0,5 mm 1 m/s 730 mmHg 56%
    18:00 +31°C° 0,5 mm 1 m/s 730 mmHg 63%
    19:00 +29°C° 0,5 mm 2 m/s 731 mmHg 70%
    20:00 +28°C° 0,3 mm 2 m/s 731 mmHg 75%
    21:00 +27°C° 0,3 mm 2 m/s 732 mmHg 79%
    22:00 +26°C° 0,3 mm 2 m/s 733 mmHg 83%
    23:00 +26°C° 0,1 mm 2 m/s 732 mmHg 86%

    Après-demain, 22 Février, Jeudi

    Heure Température Précipitation Vent Pression Humidité
    00:00 +25°C° 0,1 mm 2 m/s 732 mmHg 88%
    01:00 +25°C° 0,1 mm 2 m/s 732 mmHg 90%
    02:00 +25°C° 0 mm 2 m/s 732 mmHg 91%
    03:00 +25°C° 0 mm 1 m/s 732 mmHg 92%
    04:00 +25°C° 0 mm 1 m/s 732 mmHg 93%
    05:00 +25°C° 0 mm 1 m/s 732 mmHg 93%
    06:00 +25°C° 0 mm 1 m/s 733 mmHg 92%
    07:00 +25°C° 0 mm 1 m/s 733 mmHg 91%
    08:00 +26°C° 0,2 mm 1 m/s 734 mmHg 86%
    09:00 +27°C° 0,2 mm 1 m/s 734 mmHg 81%
    10:00 +28°C° 0,2 mm 1 m/s 734 mmHg 76%
    11:00 +29°C° 0,3 mm 1 m/s 734 mmHg 72%
    12:00 +30°C° 0,3 mm 2 m/s 733 mmHg 69%
    13:00 +31°C° 0,3 mm 2 m/s 732 mmHg 66%
    14:00 +31°C° 0,1 mm 2 m/s 732 mmHg 66%
    15:00 +31°C° 0,1 mm 2 m/s 731 mmHg 66%
    16:00 +31°C° 0,1 mm 2 m/s 730 mmHg 67%
    17:00 +29°C° 0 mm 1 m/s 731 mmHg 71%
    18:00 +28°C° 0 mm 1 m/s 731 mmHg 75%
    19:00 +27°C° 0 mm 1 m/s 731 mmHg 79%
    20:00 +27°C° 0 mm 1 m/s 731 mmHg 79%
    21:00 +26°C° 0 mm 1 m/s 732 mmHg 80%
    22:00 +26°C° 0 mm 1 m/s 732 mmHg 80%
    23:00 +25°C° 0 mm 1 m/s 731 mmHg 81%

    23 Février, Vendredi

    Heure Température Précipitation Vent Pression Humidité
    00:00 +25°C° 0 mm 1 m/s 731 mmHg 83%
    01:00 +24°C° 0 mm 1 m/s 730 mmHg 84%
    02:00 +24°C° 0 mm 1 m/s 730 mmHg 82%
    03:00 +22°C° 0 mm 0 m/s 730 mmHg 81%
    04:00 +22°C° 0 mm 0 m/s 730 mmHg 80%
    05:00 +23°C° 0 mm 0 m/s 730 mmHg 80%
    06:00 +23°C° 0 mm 0 m/s 731 mmHg 80%
    07:00 +23°C° 0 mm 0 m/s 732 mmHg 80%
    08:00 +27°C° 0 mm 1 m/s 732 mmHg 71%
    09:00 +30°C° 0 mm 1 m/s 732 mmHg 63%
    10:00 +32°C° 0 mm 1 m/s 733 mmHg 54%
    11:00 +34°C° 0 mm 1 m/s 732 mmHg 49%
    12:00 +36°C° 0 mm 1 m/s 731 mmHg 44%
    13:00 +39°C° 0 mm 1 m/s 730 mmHg 39%
    14:00 +36°C° 0 mm 0 m/s 730 mmHg 39%
    15:00 +36°C° 0 mm 0 m/s 729 mmHg 38%
    16:00 +35°C° 0 mm 0 m/s 729 mmHg 38%
    17:00 +33°C° 0 mm 0 m/s 729 mmHg 43%
    18:00 +31°C° 0 mm 0 m/s 729 mmHg 48%
    19:00 +29°C° 0 mm 0 m/s 730 mmHg 53%
    20:00 +30°C° 0 mm 1 m/s 730 mmHg 56%
    21:00 +29°C° 0 mm 1 m/s 731 mmHg 59%
    22:00 +29°C° 0 mm 1 m/s 732 mmHg 62%
    23:00 +28°C° 0,2 mm 1 m/s 731 mmHg 66%

    24 Février, Samedi

    Heure Température Précipitation Vent Pression Humidité
    00:00 +26°C° 0,2 mm 0 m/s 731 mmHg 70%
    01:00 +25°C° 0,2 mm 0 m/s 731 mmHg 74%
    02:00 +25°C° 0 mm 0 m/s 731 mmHg 75%
    03:00 +26°C° 0 mm 1 m/s 731 mmHg 77%
    04:00 +26°C° 0 mm 1 m/s 731 mmHg 79%
    05:00 +26°C° 0,2 mm 1 m/s 731 mmHg 81%
    06:00 +26°C° 0,2 mm 1 m/s 732 mmHg 83%
    07:00 +26°C° 0,2 mm 1 m/s 733 mmHg 85%
    08:00 +28°C° 0,5 mm 1 m/s 733 mmHg 78%
    09:00 +30°C° 0,5 mm 1 m/s 733 mmHg 72%
    10:00 +32°C° 0,5 mm 2 m/s 734 mmHg 66%
    11:00 +33°C° 0,4 mm 1 m/s 733 mmHg 62%
    12:00 +34°C° 0,4 mm 1 m/s 732 mmHg 58%
    13:00 +35°C° 0,4 mm 1 m/s 732 mmHg 54%
    14:00 +35°C° 0 mm 1 m/s 731 mmHg 53%
    15:00 +33°C° 0 mm 0 m/s 730 mmHg 52%
    16:00 +33°C° 0 mm 0 m/s 730 mmHg 52%
    17:00 +33°C° 0,2 mm 1 m/s 730 mmHg 59%
    18:00 +31°C° 0,2 mm 1 m/s 731 mmHg 66%
    19:00 +29°C° 0,2 mm 2 m/s 731 mmHg 73%
    20:00 +28°C° 0,4 mm 2 m/s 732 mmHg 78%
    21:00 +27°C° 0,4 mm 1 m/s 732 mmHg 83%
    22:00 +27°C° 0,4 mm 1 m/s 733 mmHg 88%
    23:00 +26°C° 0 mm 2 m/s 733 mmHg 90%

    25 Février, Dimanche

    Heure Température Précipitation Vent Pression Humidité
    00:00 +26°C° 0 mm 2 m/s 732 mmHg 91%
    01:00 +26°C° 0 mm 2 m/s 732 mmHg 93%
    02:00 +25°C° 0,1 mm 2 m/s 732 mmHg 94%
    03:00 +25°C° 0,1 mm 2 m/s 732 mmHg 95%
    04:00 +25°C° 0,1 mm 2 m/s 732 mmHg 96%
    05:00 +25°C° 0 mm 2 m/s 733 mmHg 95%
    06:00 +25°C° 0 mm 1 m/s 733 mmHg 94%
    07:00 +26°C° 0 mm 1 m/s 733 mmHg 93%
    08:00 +27°C° 0 mm 2 m/s 734 mmHg 86%
    09:00 +29°C° 0 mm 2 m/s 734 mmHg 80%
    10:00 +30°C° 0 mm 2 m/s 734 mmHg 73%
    11:00 +31°C° 0,3 mm 2 m/s 733 mmHg 71%
    12:00 +31°C° 0,3 mm 2 m/s 733 mmHg 68%
    13:00 +32°C° 0,3 mm 2 m/s 732 mmHg 66%
    14:00 +32°C° 0,5 mm 2 m/s 732 mmHg 65%
    15:00 +32°C° 0,5 mm 2 m/s 731 mmHg 64%
    16:00 +32°C° 0,5 mm 2 m/s 731 mmHg 63%
    17:00 +31°C° 1,3 mm 2 m/s 731 mmHg 70%
    18:00 +29°C° 1,3 mm 2 m/s 732 mmHg 76%
    19:00 +28°C° 1,3 mm 2 m/s 732 mmHg 82%
    20:00 +27°C° 0,4 mm 2 m/s 733 mmHg 83%
    21:00 +27°C° 0,4 mm 2 m/s 733 mmHg 85%
    22:00 +26°C° 0,4 mm 2 m/s 734 mmHg 87%
    23:00 +26°C° 0 mm 2 m/s 733 mmHg 88%
    Voir plus